GPS BIIR-11

Last updated on Jan. 24, 2020, 4:41 a.m. UTC

1 28190U 04009A   20023.21210098 -.00000091  00000-0  00000-0 0  9994
2 28190  56.2836   8.4966 0089133  88.8194  28.8645  2.00564650116118
UTC
Height (km)
Latitude
Longitude
Inclination
Orbital Period
UTC large
Height (km)
Speed (km/s)
/
Latitude / Longitude
Inclination (degrees)
Orbital Period (minutes)
Azimuth
Elevation
Range (km)
Doppler Factor
iOS Compass Heading
iOS Angle

Next 30 passes for location: Hong Kong

Rise time Rise Azimuth (degrees) Set time Set Azimuth (degrees) Duration Max altitude (degrees)

No matching passes for this satellites